Flag for Micronesia Weather past 2 weeks in Tofol, Kosrae, Micronesia

Now
78 °F

Mostly cloudy.


Feels Like: 81 °F
Forecast: 82 / 87 °F
Wind: 6 mph from East

Location: Pohnpei

Current Time: Dec 20, 2014 at 7:41:15 AM

Latest Report: Dec 20, 2014 at 6:52 AM


Visibility: 15 mi

Pressure: 29.85 "Hg

Humidity: 87%

Dew point: 74 °F

Location of TofolLocation

Historic Weather in Tofol — Graph

°F

Tofol temperature yesterday

Maximum temperature yesterday: 88 °F (at 10:51 AM)
Minimum temperature yesterday: 76 °F (at 6:53 AM)
Average temperature yesterday: 82 °F

Past Weeks' High & Low Weather Summary

 TemperatureHumidityPressure
High89 °F (Dec 5, 10:51 AM)98% (Dec 14, 12:52 AM)29.91 "Hg (Dec 14, 12:52 AM)
Low76 °F (Dec 5, 5:50 AM)63% (Dec 18, 4:53 PM)29.71 "Hg (Dec 6, 2:52 PM)
Average81 °F85%29.84 "Hg
* Reported Dec 5 5:50 AM — Dec 20 5:53 AM, Tofol, Weather by CustomWeather, © 2014

Note: Actual official high and low records may vary slightly from our data, if they occured in-between our weather recording intervals... More about our weather records

Advertising

Tofol weather history for previous 24 hours

 ConditionsComfort  
Time TempWeatherWind HumidityBarometerVisibility
5:53 AM
Dec 20
76 °FSprinkles. Mostly cloudy.5 mph89%29.83 "Hg10 mi
4:52 AM78 °FSprinkles. Mostly cloudy.9 mph90%29.83 "Hg12 mi
3:52 AM79 °FMostly cloudy.12 mph87%29.80 "Hg15 mi
2:52 AM79 °FMostly cloudy.12 mph94%29.83 "Hg15 mi
1:53 AM80 °FPassing clouds.6 mph88%29.83 "Hg15 mi
12:51 AM78 °FPassing clouds.5 mph95%29.85 "Hg15 mi
11:55 PM
Dec 19
78 °FPassing clouds.1 mph94%29.86 "Hg15 mi
10:55 PM80 °FPassing clouds.6 mph92%29.86 "Hg15 mi
9:55 PM79 °FPassing clouds.No wind93%29.86 "Hg15 mi
8:54 PM78 °FPassing clouds.No wind93%29.87 "Hg15 mi
7:52 PM79 °FPassing clouds.No wind93%29.86 "Hg15 mi
6:55 PM81 °FPassing clouds.2 mph82%29.84 "Hg15 mi
5:53 PM83 °FBroken clouds.5 mph76%29.83 "Hg15 mi
4:55 PM86 °FScattered clouds.5 mph70%29.81 "Hg15 mi
3:51 PM85 °FPartly sunny.9 mph79%29.80 "Hg15 mi
2:50 PM87 °FPartly sunny.10 mph70%29.80 "Hg15 mi
1:57 PM87 °FPartly sunny.12 mph74%29.81 "Hg15 mi
12:52 PM87 °FPartly sunny.10 mph75%29.83 "Hg15 mi
11:51 AM87 °FBroken clouds.8 mph73%29.85 "Hg15 mi
10:51 AM88 °FBroken clouds.10 mph71%29.86 "Hg15 mi
9:53 AM85 °FPartly sunny.13 mph74%29.87 "Hg15 mi
8:55 AM83 °FPartly sunny.12 mph78%29.88 "Hg15 mi
7:51 AM79 °FScattered clouds.3 mph87%29.86 "Hg15 mi
Weather by CustomWeather, © 2014

See weather overviewHow to use our weather pages